Location: North Evanston
(42.0634°N, 87.6976°W)
Time: 20:43:40
(UTC+00:00)

Vanguard 2 Rocket - Pass Details

Date: 14 May 2026
Orbit: 553 x 3286 km, 32.9° (Epoch: 6 June)

Event Time Altitude Azimuth Distance (km) Brightness Sun altitude
Rises 23:06:24 0° 280° (W) 7,106 13.1 19.9°
Reaches altitude 10° 23:11:49 10° 272° (W) 6,204 13.5 18.9°
Maximum altitude 23:27:54 32° 219° (SW) 4,394 10.9 16.0°
Drops below altitude 10° 23:41:26 10° 164° (SSE) 5,175 10.5 13.5°
Sets 23:45:30 0° 154° (SSE) 5,827 10.6 12.8°
